Temperature
22 22 22 22 21 21 21 21 21 20 20 20 19 19 19 19 19 19 19 19 19 19 19 19 18 18 18 18 18 18 18 18 18 18 18 18 18 18 18 19 19 19 19
22 22 22 22 22 21 21 21 21 20 20 20 20 20 19 19 19 19 19 19 19 19 19 19 19 18 18 18 18 18 18 18 18 18 18 18 18 18 18 18 19 19 18
22 22 22 22 22 21 21 21 21 20 20 20 20 19 19 19 19 19 19 19 19 19 19 19 19 18 18 18 18 18 18 18 18 18 18 18 18 18 19 19 19 19 18
22 22 22 22 22 22 21 21 21 20 20 20 20 20 20 19 19 19 19 19 19 19 19 19 19 18 18 18 18 18 18 18 18 18 18 18 18 18 18 18 19 18 19
23 22 22 22 22 22 21 21 21 21 20 20 20 20 20 20 19 19 19 19 19 19 19 19 19 19 19 18 18 18 18 18 18 18 18 18 18 18 18 18 19 19 19
23 23 23 22 22 22 21 21 21 21 20 20 20 20 20 20 19 19 19 19 19 19 19 19 19 19 19 19 18 18 18 18 18 18 18 18 18 18 18 18 18 18 19
23 23 22 22 22 22 21 21 21 21 20 20 20 20 20 20 20 19 19 19 19 19 19 19 19 19 19 19 18 18 18 18 18 18 18 18 18 18 18 18 18 18 18
23 23 23 22 22 22 22 21 21 21 21 20 20 20 20 20 19 19 19 19 19 19 19 19 19 19 19 19 18 18 18 18 18 18 18 18 18 18 18 18 18 18 18
23 23 23 22 22 22 22 21 21 21 21 21 20 20 20 20 19 19 19 19 19 19 19 19 19 19 18 18 18 18 18 18 18 18 18 18 18 18 18 18 18 18 17
23 23 23 23 22 22 22 21 21 21 21 21 20 20 20 20 20 19 19 19 19 19 19 19 19 18 18 18 18 18 18 18 18 18 18 18 18 18 18 18 18 17 17
23 23 23 22 22 22 21 21 21 21 20 20 20 20 20 20 19 19 19 19 19 19 19 19 18 18 18 18 18 18 18 18 18 18 18 18 18 18 18 18 17 17 17
23 23 23 22 22 21 21 21 21 20 20 20 20 20 20 19 19 19 19 19 19 19 18 18 18 18 18 18 18 18 18 18 18 18 18 18 18 18 17 17 17 17 17
23 23 22 22 21 21 21 21 21 20 20 20 20 20 19 19 19 19 19 19 19 18 18 18 18 18 18 18 18 18 18 18 18 17 17 17 17 17 17 17 17 17 17
22 22 22 21 21 21 21 21 20 20 20 20 19 19 19 19 19 19 19 18 18 18 18 18 18 18 18 18 18 18 18 17 17 17 17 17 17 17 17 17 17 17 17
21 21 21 21 21 20 20 20 20 20 19 19 19 19 19 18 18 18 18 18 18 18 18 17 18 18 18 18 17 17 17 17 17 17 17 17 17 17 17 16 16 16 16
20 20 20 20 20 20 20 20 20 19 19 19 19 19 19 18 18 18 18 18 18 18 17 17 17 17 17 17 17 17 17 17 17 17 17 17 16 16 16 16 16 16 16
19 19 20 20 19 19 19 19 19 19 19 18 18 18 18 18 18 18 18 17 17 17 17 17 17 17 17 17 17 17 17 17 17 16 16 16 16 16 16 16 16 16 15
19 19 19 19 19 19 19 19 18 18 18 18 18 18 18 17 17 17 17 17 17 17 17 17 17 17 17 17 17 16 16 16 16 16 16 16 16 16 15 15 15 15 15
19 19 18 18 18 18 18 18 18 18 18 17 17 17 17 17 17 17 17 17 17 17 17 17 16 16 16 16 16 16 16 16 16 15 15 15 15 15 15 15 15 15 15
18 18 18 18 17 17 17 17 17 17 17 17 17 17 17 17 17 17 16 16 16 16 16 16 16 16 16 16 15 15 15 15 15 15 15 15 15 15 15 14 14 14 14
18 18 18 17 17 17 17 17 17 17 17 17 17 17 16 16 16 16 16 16 16 16 16 16 15 15 15 15 15 15 15 15 15 15 15 14 14 14 14 14 14 14 14
17 17 17 17 17 16 16 16 16 16 16 16 16 16 16 16 16 16 15 15 15 15 15 15 15 15 15 15 15 15 14 14 14 14 14 14 14 14 14 14 13 13 13
16 16 16 16 16 16 16 16 16 16 15 15 15 15 15 15 15 15 15 15 15 14 15 15 15 15 15 15 14 14 14 14 14 14 14 14 13 13 13 13 13 13 13
16 16 16 16 16 16 15 15 15 15 15 15 15 15 15 15 15 14 14 14 14 14 14 14 14 14 14 14 14 14 14 14 14 13 13 13 13 13 13 13 13 12 12
16 16 16 15 15 15 15 15 15 15 15 15 14 14 14 14 14 14 14 14 14 14 14 14 14 14 14 14 14 14 14 13 13 13 13 12 12 12 12 12 12 12 11
15 15 15 15 15 15 15 15 15 14 14 14 14 14 14 14 13 13 13 13 13 13 13 13 13 14 14 14 13 13 13 13 13 12 12 12 12 12 12 11 11 11 11
Wind_Speed
11 12 14 14 12 10 10 9 9 7 6 4 4 4 4 4 4 6 8 10 9 9 7 5 5 5 5 5 5 4 3 2 2 1 2 3 2 2 3 3 3 5 8
10 12 12 13 13 12 11 10 9 8 7 6 4 4 4 4 4 5 6 9 9 8 8 6 5 6 5 5 5 4 3 2 3 3 1 2 3 3 3 3 4 5 5
15 14 14 13 13 12 12 11 10 9 7 6 4 3 3 2 3 4 4 6 8 8 7 7 6 6 6 6 6 6 5 4 3 4 4 2 3 2 3 2 3 3 3
13 13 15 14 14 13 12 10 10 9 8 7 6 6 6 5 5 5 5 5 7 8 8 7 7 6 5 6 6 5 4 5 4 3 3 3 4 2 2 3 3 3 4
14 14 16 15 14 12 11 10 9 8 8 7 7 7 5 5 4 4 5 5 5 6 7 7 6 6 6 6 6 4 5 5 5 4 2 2 2 3 3 3 3 3 3
13 13 12 11 10 10 10 10 10 9 8 8 7 7 7 6 5 5 6 5 4 5 6 7 6 6 6 7 7 6 6 5 5 4 4 3 3 3 3 4 3 3 4
11 11 11 11 11 12 12 10 10 10 9 9 8 7 7 7 7 6 6 6 5 5 7 7 6 6 6 7 7 7 7 6 6 6 5 4 4 3 3 3 3 3 3
8 10 12 13 13 13 12 12 12 10 10 10 9 7 7 6 5 5 5 5 5 6 6 7 7 7 7 7 6 6 7 6 7 8 6 4 5 4 4 4 3 2 3
8 10 12 11 11 11 11 11 11 10 11 11 9 8 7 7 6 6 5 4 4 5 5 6 6 6 6 7 6 6 7 6 6 6 6 5 4 4 4 4 4 4 3
7 8 9 9 9 9 8 8 8 10 10 10 10 9 8 8 7 6 6 5 5 5 4 5 6 6 5 6 6 5 5 5 5 5 5 4 4 3 3 4 4 4 4
7 8 8 8 8 7 7 7 7 7 8 9 8 8 7 7 6 6 6 6 5 5 5 5 5 5 6 5 5 5 5 5 5 4 5 5 4 3 3 3 3 3 4
6 8 8 7 6 6 7 7 6 6 7 8 7 7 6 6 6 7 7 6 6 6 5 5 5 5 5 5 5 6 5 6 6 6 5 5 4 4 3 3 4 4 4
6 6 7 7 7 6 6 6 6 6 6 6 6 6 6 6 7 8 7 6 6 5 5 5 5 5 5 5 5 5 6 6 6 6 6 5 5 4 4 3 3 3 3
6 5 5 6 6 6 6 5 5 5 5 5 6 5 6 6 7 7 6 6 6 5 5 5 5 6 6 6 5 5 5 5 5 5 5 5 5 5 5 4 4 3 2
5 5 4 4 4 4 4 4 4 4 5 5 6 6 5 4 4 5 5 5 6 6 5 5 5 5 5 5 5 5 5 4 4 4 4 5 5 7 6 4 4 3 3
4 4 4 5 4 3 3 3 3 4 5 6 6 5 4 4 4 3 3 4 5 5 5 5 6 5 5 4 5 5 4 4 4 3 3 3 4 5 5 5 5 5 5
4 3 3 4 4 3 3 2 2 3 4 4 4 4 4 4 4 4 3 4 4 4 4 5 5 5 5 5 5 5 4 3 3 4 3 3 3 3 3 3 4 4 6
4 3 3 2 2 2 2 2 2 3 3 3 3 3 4 5 4 4 4 4 3 3 4 4 4 4 4 5 5 5 4 3 3 3 3 4 3 3 3 2 2 3 4
5 4 3 3 2 2 2 2 1 1 2 2 3 3 4 4 4 4 4 3 3 3 3 4 4 4 4 5 5 4 2 2 2 3 3 4 3 4 3 2 2 3 4
3 3 3 3 2 2 3 3 1 1 1 2 2 3 3 4 4 4 3 2 3 3 3 3 3 4 4 4 4 4 3 2 2 2 2 3 4 3 2 3 3 4 4
3 3 4 3 3 2 2 2 0 2 3 2 1 1 2 3 3 3 2 2 2 3 2 2 2 3 4 4 4 5 4 4 3 2 2 3 3 2 3 3 4 6 4
2 2 2 2 2 2 2 1 2 3 1 1 1 1 1 1 1 2 2 2 3 3 3 2 2 2 2 3 4 5 6 5 4 3 3 3 3 4 4 3 4 4 2
1 1 2 2 1 1 2 2 3 2 1 1 1 1 0 0 1 2 3 2 2 3 3 3 3 2 2 2 3 4 5 5 3 2 3 3 3 2 3 3 3 2 1
1 1 2 2 1 2 2 3 3 2 2 1 1 1 0 0 0 1 2 2 2 3 3 3 3 3 2 2 2 2 2 3 2 1 1 1 2 2 2 2 2 1 2
1 1 2 2 2 2 2 2 2 2 2 2 1 1 1 2 1 1 1 2 2 3 4 4 4 4 4 5 6 4 3 3 3 2 1 1 1 1 2 2 2 1 0
1 1 2 2 2 1 2 2 2 2 2 2 2 2 1 1 2 1 0 1 1 0 2 3 4 4 5 5 6 6 5 5 6 4 1 1 1 2 2 1 1 1 1
Wind_Direction
177 170 166 165 165 167 167 170 169 174 167 160 166 169 175 171 171 178 178 180 181 181 176 177 174 175 179 188 183 173 180 203 164 107 333 318 287 249 236 222 210 223 226
172 175 170 169 171 172 173 174 176 175 175 177 176 172 164 167 172 174 180 186 184 182 181 174 180 181 180 183 185 174 171 203 172 150 111 333 326 300 252 233 222 229 228
179 176 176 176 176 177 176 178 178 176 177 172 155 148 130 128 153 170 184 191 188 187 187 183 182 184 182 188 194 186 180 195 203 177 162 173 234 287 301 273 247 241 234
180 179 177 177 180 181 177 175 174 172 175 172 167 165 171 179 192 187 190 193 192 192 195 192 187 185 185 188 197 193 186 181 200 215 208 191 178 194 277 300 276 259 243
185 184 183 181 181 178 177 176 172 173 176 176 178 177 180 184 180 178 186 195 198 198 199 194 188 189 191 194 199 197 195 189 194 201 207 219 220 194 193 261 282 285 264
187 186 182 175 177 176 175 177 176 180 181 179 179 180 181 182 179 187 193 200 203 205 204 199 195 197 196 200 201 203 201 202 201 205 200 195 202 208 200 226 253 264 272
181 177 174 176 179 179 180 181 181 183 184 183 185 187 188 184 190 191 194 195 201 208 211 206 199 203 206 203 198 202 210 206 206 210 214 212 217 207 194 204 239 257 275
169 173 176 180 180 180 183 184 186 189 186 187 192 192 187 187 195 193 189 197 206 210 206 204 203 207 206 209 204 209 213 210 211 220 214 214 223 212 203 196 201 255 280
166 171 170 176 180 182 186 185 187 190 191 191 191 194 193 192 196 195 191 197 206 210 204 204 206 209 207 208 203 213 217 212 213 217 214 218 227 215 212 203 193 193 240
160 162 167 171 174 176 180 182 183 192 195 194 195 198 199 201 199 192 196 201 206 206 201 204 207 208 208 205 202 211 217 210 216 215 213 221 226 222 212 205 204 194 201
162 159 159 164 164 159 164 175 183 187 195 196 196 198 198 201 198 199 202 201 204 205 210 206 205 210 212 209 205 210 203 208 222 225 217 224 221 218 220 212 207 208 196
159 155 152 151 155 167 173 171 172 180 192 193 193 199 198 194 201 210 211 203 204 208 211 210 207 210 213 210 207 214 212 211 223 226 217 224 221 216 226 219 222 224 214
132 144 147 154 161 170 174 172 179 183 181 178 187 196 198 198 207 214 214 210 209 210 207 202 205 209 210 210 215 213 216 216 221 219 216 222 214 222 228 227 234 238 237
123 130 140 151 159 171 177 176 183 184 177 174 179 190 201 208 212 214 212 213 209 205 205 205 207 211 212 212 217 218 223 221 220 219 219 222 214 217 219 227 232 228 223
122 128 136 140 142 146 156 166 174 180 177 177 185 196 201 205 217 214 212 210 206 206 198 197 203 206 206 216 210 213 218 214 218 222 221 220 213 212 214 218 223 216 216
120 125 131 134 134 142 156 160 169 178 175 181 194 196 191 193 206 217 214 210 207 205 196 197 199 203 215 212 199 196 200 198 202 214 223 224 228 223 225 224 222 212 216
142 135 135 140 148 163 158 157 173 163 164 176 186 184 178 188 200 202 191 204 207 201 199 202 199 202 209 201 196 188 188 193 205 213 217 230 236 226 229 240 250 247 239
151 142 136 132 149 157 159 167 161 157 156 163 179 193 191 195 204 198 200 208 203 201 201 205 202 200 210 203 199 191 187 195 210 213 211 209 224 226 220 232 264 280 277
164 158 155 147 148 150 152 141 141 149 146 170 186 207 208 200 202 207 215 213 195 209 209 198 198 199 213 203 193 184 179 193 225 226 208 196 209 233 209 193 244 283 288
155 157 151 137 148 179 154 138 141 164 216 227 211 207 208 200 205 210 212 209 194 207 201 194 202 199 214 216 196 178 177 193 236 258 243 215 211 228 215 203 220 255 270
155 156 150 161 189 192 143 138 167 229 235 228 199 198 200 204 207 206 198 181 181 178 184 192 217 219 223 228 206 185 184 197 210 231 249 250 234 233 241 225 226 242 251
130 137 155 190 204 178 153 160 243 246 221 170 165 168 183 207 202 180 189 170 172 177 187 189 210 237 238 222 218 197 193 191 194 219 231 237 235 250 262 257 252 250 248
167 177 172 193 233 198 159 207 256 256 188 156 183 233 268 216 188 171 170 173 180 190 199 194 208 225 225 223 222 208 201 199 194 215 233 241 249 271 276 272 257 229 198
207 175 156 171 247 271 246 225 237 218 173 186 203 201 153 147 197 165 158 168 193 209 205 203 211 214 219 228 230 221 203 189 181 207 279 278 271 284 273 274 265 238 205
216 157 156 186 227 244 248 246 233 179 173 187 198 199 195 181 165 152 165 175 185 198 198 205 203 200 215 228 215 196 195 192 189 151 79 30 9 344 331 318 302 287 241
209 182 182 195 224 233 255 261 238 189 183 195 205 207 195 183 174 174 155 54 103 300 231 207 200 212 211 203 201 203 189 176 163 140 150 201 229 235 249 261 285 273 237
Height
1502 1503 1505 1507 1510 1511 1513 1514 1516 1517 1519 1520 1521 1521 1522 1524 1525 1527 1529 1532 1534 1535 1537 1539 1541 1542 1544 1545 1547 1549 1550 1551 1553 1554 1554 1555 1555 1555 1555 1555 1556 1556 1556
1500 1502 1504 1506 1508 1510 1511 1513 1515 1517 1518 1519 1520 1521 1522 1524 1525 1527 1529 1531 1533 1535 1536 1538 1540 1541 1543 1544 1546 1547 1548 1550 1551 1552 1553 1553 1554 1553 1553 1553 1553 1554 1554
1496 1498 1501 1503 1506 1508 1509 1512 1514 1515 1517 1519 1520 1521 1522 1523 1525 1526 1528 1530 1532 1534 1536 1537 1539 1540 1542 1543 1544 1546 1547 1548 1550 1551 1551 1551 1551 1551 1551 1551 1551 1551 1551
1493 1494 1497 1500 1502 1505 1508 1511 1513 1514 1516 1518 1519 1519 1520 1521 1523 1525 1527 1530 1531 1533 1535 1536 1538 1539 1540 1541 1543 1545 1546 1547 1547 1548 1549 1550 1549 1550 1549 1549 1549 1549 1549
1489 1491 1493 1497 1500 1503 1506 1509 1511 1513 1515 1516 1517 1519 1519 1521 1523 1525 1527 1528 1530 1531 1533 1534 1536 1537 1538 1539 1541 1542 1543 1544 1545 1546 1547 1548 1548 1548 1547 1546 1546 1546 1546
1487 1490 1493 1497 1500 1502 1505 1508 1510 1511 1513 1515 1516 1517 1518 1520 1522 1523 1525 1527 1528 1530 1531 1532 1534 1535 1536 1537 1538 1540 1541 1542 1542 1543 1544 1545 1545 1545 1545 1544 1543 1543 1543
1485 1488 1492 1495 1498 1501 1503 1505 1508 1509 1511 1513 1514 1515 1517 1519 1520 1521 1523 1525 1526 1527 1529 1530 1531 1532 1534 1535 1536 1537 1538 1539 1540 1540 1541 1542 1542 1543 1543 1542 1541 1540 1540
1483 1486 1489 1492 1495 1498 1501 1503 1504 1506 1509 1510 1512 1513 1515 1517 1518 1520 1521 1523 1524 1525 1526 1528 1529 1530 1531 1532 1533 1534 1534 1535 1536 1537 1538 1538 1539 1539 1539 1539 1539 1537 1536
1481 1484 1486 1490 1492 1495 1498 1500 1502 1504 1506 1507 1509 1511 1512 1514 1516 1518 1519 1520 1521 1523 1524 1525 1526 1527 1528 1529 1529 1530 1531 1532 1532 1533 1534 1535 1535 1535 1535 1536 1536 1536 1533
1481 1483 1486 1488 1491 1494 1496 1499 1500 1502 1503 1505 1506 1508 1509 1511 1513 1515 1516 1517 1519 1520 1521 1521 1522 1523 1524 1525 1526 1526 1527 1528 1528 1529 1530 1531 1531 1531 1532 1531 1532 1531 1531
1480 1482 1484 1487 1490 1493 1495 1497 1498 1500 1502 1503 1504 1505 1506 1508 1510 1511 1512 1513 1515 1516 1517 1518 1519 1519 1520 1521 1522 1522 1523 1524 1524 1525 1526 1526 1527 1527 1527 1527 1527 1527 1527
1480 1482 1484 1486 1489 1492 1493 1494 1495 1497 1499 1500 1501 1502 1504 1505 1506 1507 1508 1510 1511 1512 1513 1514 1515 1516 1517 1517 1518 1518 1519 1520 1521 1521 1521 1522 1522 1522 1523 1523 1523 1522 1522
1479 1481 1483 1484 1487 1489 1491 1492 1494 1494 1496 1497 1498 1499 1500 1501 1502 1503 1505 1506 1507 1508 1509 1510 1511 1512 1513 1514 1514 1515 1515 1516 1516 1517 1517 1518 1518 1518 1518 1518 1518 1518 1518
1478 1480 1481 1482 1484 1486 1488 1489 1490 1492 1493 1494 1495 1496 1497 1498 1499 1500 1501 1502 1503 1504 1504 1506 1507 1508 1509 1509 1510 1511 1511 1511 1511 1512 1513 1513 1513 1513 1514 1514 1514 1514 1514
1478 1478 1479 1480 1482 1484 1485 1487 1488 1490 1491 1491 1492 1493 1494 1495 1496 1496 1497 1498 1499 1500 1501 1502 1503 1504 1504 1505 1505 1506 1507 1507 1507 1508 1508 1509 1509 1509 1510 1510 1509 1510 1509
1477 1478 1478 1479 1480 1482 1483 1485 1486 1487 1488 1488 1489 1490 1490 1491 1492 1492 1494 1494 1495 1496 1497 1498 1499 1499 1500 1501 1502 1502 1502 1503 1504 1504 1504 1505 1505 1506 1506 1506 1506 1506 1505
1476 1477 1477 1478 1479 1480 1482 1482 1483 1484 1485 1485 1486 1486 1487 1488 1489 1489 1490 1490 1491 1492 1492 1493 1494 1495 1496 1497 1498 1498 1499 1499 1499 1500 1500 1501 1501 1501 1501 1501 1501 1501 1500
1476 1476 1477 1477 1478 1479 1480 1480 1481 1482 1482 1483 1483 1483 1483 1484 1485 1485 1486 1486 1487 1488 1488 1489 1490 1491 1492 1493 1494 1494 1495 1495 1495 1495 1496 1496 1497 1497 1497 1497 1496 1496 1495
1475 1476 1476 1476 1477 1477 1477 1478 1479 1479 1479 1480 1480 1480 1480 1481 1481 1481 1482 1483 1484 1484 1485 1486 1486 1487 1488 1489 1489 1490 1490 1490 1491 1491 1492 1492 1492 1492 1493 1493 1492 1491 1491
1474 1474 1474 1475 1476 1476 1475 1475 1475 1475 1476 1476 1476 1477 1478 1478 1478 1478 1479 1479 1480 1481 1482 1482 1483 1483 1484 1485 1485 1486 1486 1487 1487 1488 1488 1488 1488 1488 1488 1488 1487 1486 1486
1472 1472 1472 1473 1473 1474 1473 1473 1473 1473 1473 1474 1474 1474 1475 1475 1475 1476 1476 1477 1477 1478 1478 1478 1479 1480 1480 1481 1482 1482 1482 1483 1483 1483 1484 1484 1484 1484 1484 1484 1483 1482 1482
1470 1470 1470 1471 1471 1471 1471 1471 1470 1470 1470 1470 1471 1471 1472 1472 1472 1472 1473 1473 1474 1474 1475 1475 1476 1477 1477 1478 1478 1478 1479 1479 1479 1479 1480 1480 1480 1480 1480 1480 1479 1479 1478
1468 1468 1468 1468 1469 1469 1469 1468 1468 1468 1468 1467 1467 1468 1468 1468 1469 1469 1469 1470 1471 1471 1471 1472 1472 1473 1474 1474 1475 1475 1475 1475 1475 1475 1476 1477 1477 1476 1476 1476 1475 1475 1474
1467 1466 1466 1466 1467 1467 1466 1466 1465 1465 1465 1464 1464 1464 1464 1465 1465 1465 1465 1466 1467 1468 1468 1468 1469 1469 1470 1471 1471 1471 1471 1471 1472 1472 1473 1473 1473 1473 1472 1472 1471 1471 1471
1466 1465 1464 1464 1465 1464 1464 1463 1463 1463 1462 1462 1462 1461 1462 1462 1462 1462 1462 1463 1463 1464 1464 1464 1465 1466 1466 1467 1468 1468 1467 1468 1468 1468 1469 1469 1469 1469 1469 1468 1468 1467 1467
1464 1464 1463 1463 1462 1462 1461 1461 1461 1460 1459 1459 1459 1459 1459 1459 1460 1460 1460 1460 1461 1461 1462 1461 1462 1462 1463 1463 1464 1464 1464 1464 1465 1465 1465 1465 1466 1466 1465 1465 1465 1464 1464